Location: Le Hiès Ruisseau
(43.3000°N, 0.4500°W)
Time: 01:46:41
(UTC+00:00)

Nadezhda 2 Rocket - Pass Details

Date: 28 January 2023
Orbit: 947 x 1011 km, 83.0° (Epoch: 27 March)

Event Time Altitude Azimuth Distance (km) Brightness Sun altitude
Rises 19:20:34 0° 351° (N) 3,690 7.6 -24.1°
Reaches altitude 10° 19:23:06 10° 352° (N) 2,728 6.9 -24.6°
Maximum altitude 19:29:22 88° 265° (W) 969 4.4 -25.7°
Drops below altitude 10° 19:35:29 10° 175° (S) 2,672 6.7 -26.9°
Sets 19:37:57 0° 175° (S) 3,609 7.4 -27.3°
